Location: ?????
(32.7281°N, 34.9563°E)
Time: 10:37:17
(UTC+00:00)

Cosmos 2278 - Pass Details

Date: 29 October 2020
Orbit: 842 x 851 km, 71.1° (Epoch: 27 November)

Event Time Altitude Azimuth Distance (km) Brightness Sun altitude
Rises 16:16:53 0° 198° (SSW) 3,396 7.2 -18.4°
Reaches altitude 10° 16:19:20 10° 199° (SSW) 2,463 6.4 -18.9°
Maximum altitude 16:25:00 90° 102° (ESE) 851 3.6 -20.1°
Drops below altitude 10° 16:30:41 10° 20° (NNE) 2,471 5.9 -21.3°
Enters shadow 16:30:44 10° 20° (NNE) 2,490 5.9 -21.3°
